Location: Fontevrault
(47.1823°N, 0.0493°E)
Time: 08:42:12
(UTC+00:00)

Terra - Pass Details

Date: 16 June 2021
Orbit: 701 x 703 km, 98.2° (Epoch: 01 August)

Event Time Altitude Azimuth Distance (km) Brightness Sun altitude
Exits shadow 21:05:52 12° 133° (SE) 2,055 3.6 -9.2°
Maximum altitude 21:09:55 38° 68° (ENE) 1,080 2.7 -9.6°
Drops below altitude 10° 21:14:19 10° 1° (N) 2,183 5.2 -10.1°
Sets 21:16:42 0° 353° (N) 3,106 6.3 -10.4°
